Location: Unspecified
(0.0000°N, 0.0000°E)
Time: 08:42:47
(UTC+00:00)

Courier 1B Rocket - Pass Details

Date: 22 December 2018
Orbit: 920 x 1202 km, 28.2° (Epoch: 22 March)

Event Time Altitude Azimuth Distance (km) Brightness Sun altitude
Rises 14:16:46 0° 299° (WNW) 3,854 8.3 49.1°
Reaches altitude 10° 14:19:26 10° 299° (WNW) 2,940 7.9 48.6°
Maximum altitude 14:26:46 86° 211° (SSW) 1,153 6.4 47.1°
Drops below altitude 10° 14:34:33 10° 122° (ESE) 3,110 7.6 45.5°
Sets 14:37:26 0° 121° (ESE) 4,089 8.1 44.9°
